Location: Bohy
(49.9380°N, 13.5753°E)
Time: 00:52:01
(UTC+00:00)

COBE Rocket - Pass Details

Date: 19 May 2025
Orbit: 676 x 772 km, 97.1° (Epoch: 15 June)

Event Time Altitude Azimuth Distance (km) Brightness Sun altitude
Rises 21:50:32 0° 10° (N) 3,228 8.3 -18.3°
Reaches altitude 10° 21:52:50 10° 8° (N) 2,308 7.5 -18.4°
Maximum altitude 21:57:55 69° 287° (WNW) 827 4.2 -18.7°
Enters shadow 22:00:58 24° 209° (SSW) 1,541 5.2 -18.8°
